DELTA 1 DEB, 42091

Orbit data source: Space-Track

DELTA 1 DEB, 42091 is space debris in SSO originally from a launch on Sun, 15 Dec 1968 UTC launched from the Air Force Western Test Range (AFWTR). Debris objects in space refer to the collection of defunct objects orbiting the Earth. Examples of debris include non-operational satellites, rocket bodies, and fragments generated from explosions, collisions, or faulty payload assembly.

Loading next visibility...
Identifier
42091, 1968-114T
Orbit
SSO
Country
Flag of USUS
Related business
Manufacturer
Aerojet
Mission
Spacecraft
Bus & Motor
Unknown
Mass
Unknown
Launch date (UTC)
1968-12-15 (58 years ago)
Launch vehicle
Unknown
Launch site
Air Force Western Test Range (AFWTR)
Object type
Payload
Rocket body
Debris
Shape & HBR
Unknown shape, 0.068 m
Radar Cross Section
Medium (>0.1 m² and <1 m²)

Expand to show TLE details & history
Last TLE update: 3 days ago

TLE from 3 days ago
0 DELTA 1 DEB
1 42091U 68114T   26264.66918593  .00000030  00000-0  49036-3 0  9991
2 42091 101.4980 237.0266 0036768 114.0673  59.1864 12.47228426584142
Epoch: 2026-09-21T16:03Z
TLE epoch observation values (Epoch: 2026-09-21T16:03:37.664Z)
Latitude
6.18506°
Longitude
176.83091°
Altitude
1,463.384 km
Speed
7.138 km/s
True Right ascension
03h 53m 08s
True Declination
6° 09' 06"
Sunlit
Object was in daylight at epoch
Visualization orbit readout
Latitude
Unknown
Longitude
Unknown
Altitude
Unknown
Speed
Unknown
Apparent Right ascension
Unknown
Apparent Declination
Unknown
Sunlit
N/A
Visualization observer readout
Local Sidereal Time
22:32:31
Azimuth
Unknown
Elevation
Unknown
Doppler factor
Unknown
Orbital elements
Apogee altitude
1,502.514 km
Perigee altitude
1,444.776 km
Semi-major axis
7,851.782 km
Eccentricity
0.00368
Inclination
101.498°
RAAN
237.0266°
Arg. of periapsis
114.0673°
True anomaly
59.54911°
Mean anomaly
59.1864°
Eccentric anomaly
59.36767°
Mean motion
3.11954 °/min
Orbital period
115.4 mins
BSTAR
0.00049036
Loading maneuver chart data...
Computing Atmospheric mass density...
Loading historical data...
Loading historical data...
Loading historical data...
Loading historical data...
Loading historical data...
Loading historical data...
Loading historical data...

Documentation

Showing up to 5 results
|